This is the latest recevied weather packets stored in our database for station/object K4PAR-1. If no packets are shown the sender has not sent any weather packets the latest 10 day(s).
| Time | Temp. | Humidity | Pressure | Rain* | Wind** | Luminosity | Snow |
|---|---|---|---|---|---|---|---|
| 1788109316 | 28.33° C | - | - | 0 mm | 2.24 m/s, 217° | - | - |
| 1788106407 | 27.78° C | - | - | 0 mm | 2.68 m/s, 226° | - | - |
| 1788105476 | 27.78° C | - | - | 0 mm | 2.24 m/s, 240° | - | - |
| 1788105438 | 27.78° C | - | - | 0 mm | 2.24 m/s, 240° | - | - |
| 1788104953 | 27.22° C | - | - | 0 mm | 2.24 m/s, 190° | - | - |
| 1788104468 | 28.33° C | - | - | 0 mm | 2.68 m/s, 264° | - | - |
| 1788104226 | 28.33° C | - | - | 0 mm | 1.34 m/s, 194° | - | - |
| 1788103983 | 27.78° C | - | - | 0 mm | 3.13 m/s, 278° | - | - |
| 1788103741 | 26.67° C | - | - | 0 mm | 3.58 m/s, 193° | - | - |
| 1788103498 | 27.22° C | - | - | 0 mm | 1.79 m/s, 205° | - | - |
| 1788103014 | 26.11° C | - | - | 0 mm | 2.68 m/s, 222° | - | - |
| 1788102771 | 25.56° C | - | - | 0 mm | 3.58 m/s, 232° | - | - |
| 1788102529 | 26.11° C | - | - | 0 mm | 2.24 m/s, 191° | - | - |
| 1788102298 | 24.44° C | - | - | 0 mm | 2.24 m/s, 214° | - | - |
| 1788102044 | 25° C | - | - | 0 mm | 2.68 m/s, 257° | - | - |
| 1788101802 | 25° C | - | - | 0 mm | 1.79 m/s, 229° | - | - |
| 1788101560 | 25.56° C | - | - | 0 mm | 2.68 m/s, 233° | - | - |
| 1788101317 | 25° C | - | - | 0 mm | 2.24 m/s, 180° | - | - |
| 1788101075 | 25° C | - | - | 0 mm | 2.68 m/s, 221° | - | - |
| 1788100832 | 24.44° C | - | - | 0 mm | 2.68 m/s, 201° | - | - |
| 1788100590 | 25° C | - | - | 0 mm | 2.24 m/s, 242° | - | - |
| 1788100348 | 24.44° C | - | - | 0 mm | 2.68 m/s, 233° | - | - |
| 1788100106 | 23.89° C | - | - | 0 mm | 2.24 m/s, 217° | - | - |
| 1788099863 | 24.44° C | - | - | 0 mm | 2.24 m/s, 210° | - | - |
| 1788099621 | 23.89° C | - | - | 0 mm | 2.24 m/s, 215° | - | - |
* Rain latest hour (hover to see other rain measurements)
** Current wind speed in m/s (hover to see current wind gust speed)